This demonstration page uses our WeatherBlox Daily Observations layout. Learn more.

Left ArrowRight Arrow

Hourly Observations for June 26, 2022

Temp ( °F °C ) Dew Point ( °F °C ) Humidity (%) Winds ( mph kmh ) Pressure ( in mb ) Visibility ( mi km ) Precip ( " mm )
12:53 am 00:53 Clear 80 26.7 38 3.3 22 22 SE 7 11 29.90 1013 10 16 0.00 0.00
1:53 am 01:53 Clear 78 25.6 39 3.9 25 25 SE 7 11 29.91 1013 10 16 0.00 0.00
2:53 am 02:53 Clear 76 24.4 39 3.9 26 26 E 5 7 29.92 1013 10 16 0.00 0.00
3:53 am 03:53 Clear 75 23.9 40 4.4 28 28 ESE 6 9 29.92 1013 10 16 0.00 0.00
4:53 am 04:53 Clear 72 22.2 41 5 33 33 N 9 15 29.95 1014 10 16 0.00 0.00
5:53 am 05:53 Clear 74 23.3 43 6.1 33 33 NE 7 11 29.96 1015 10 16 0.00 0.00
6:53 am 06:53 Sunny 72 22.2 48 8.9 43 43 E 7 11 29.98 1015 10 16 0.00 0.00
7:53 am 07:53 Sunny 76 24.4 49 9.4 39 39 E 7 11 29.99 1016 10 16 0.00 0.00
8:53 am 08:53 Sunny 80 26.7 57 13.9 45 45 E 12 19 30.01 1016 10 16 0.00 0.00
9:53 am 09:53 Sunny 83 28.3 60 15.6 46 46 ESE 12 19 30.03 1017 10 16 0.00 0.00
10:53 am 10:53 Sunny 85 29.4 58 14.4 40 40 E 10 17 30.04 1017 10 16 0.00 0.00
11:53 am 11:53 Sunny 87 30.6 58 14.4 37 37 undefined N/A 30.04 1017 10 16 0.00 0.00
12:53 pm 12:53 Partly Cloudy 90 32.2 54 12.2 29 29 NE 12 19 30.03 1017 10 16 0.00 0.00
1:53 pm 13:53 Partly Cloudy 92 33.3 51 10.6 25 25 VRB 3 6 30.02 1017 10 16 0.00 0.00
2:53 pm 14:53 Mostly Sunny 93 33.9 50 10 23 23 undefined N/A 29.99 1016 10 16 0.00 0.00
3:53 pm 15:53 Partly Cloudy 94 34.4 49 9.4 21 21 E 16 26 29.98 1015 10 16 0.00 0.00
4:53 pm 16:53 Partly Cloudy 94 34.4 49 9.4 21 21 E 10 17 29.96 1015 10 16 0.00 0.00
5:53 pm 17:53 Partly Cloudy 95 35 50 10 22 22 E 17 28 29.93 1014 10 16 0.00 0.00
6:19 pm 18:19 Partly Cloudy with Nearby Thunderstorms 93 33.9 50 10 23 23 E 18 30 29.84 1010 10 16 0.00 0.00
6:39 pm 18:39 Sunny 95 35 50 10 22 22 E 16 26 29.82 1010 10 16 0.00 0.00
6:53 pm 18:53 Mostly Sunny 93 33.9 49 9.4 22 22 E 14 22 29.93 1014 10 16 0.00 0.00
7:53 pm 19:53 Partly Cloudy 93 33.9 48 8.9 21 21 ESE 18 30 29.93 1014 10 16 0.00 0.00
8:32 pm 20:32 Partly Cloudy with Light Rain 82 27.8 55 12.8 40 40 S 26 43 29.91 1013 3 4 0.03 0.76
8:38 pm 20:38 Mostly Cloudy with Light Rain 83 28.3 57 13.9 41 41 S 14 22 29.91 1013 3 5 0.03 0.76
8:53 pm 20:53 Mostly Cloudy 85 29.4 58 14.4 40 40 E 10 17 29.96 1014 10 16 0.03 0.76
9:53 pm 21:53 Mostly Clear 87 30.6 54 12.2 32 32 E 20 31 29.98 1015 10 16 0.00 0.00
10:50 pm 22:50 Mostly Cloudy with Haze 82 28 57 14 42 42 ENE 24 39 29.98 1015 6 10 0.00 0.00
10:53 pm 22:53 Mostly Cloudy with Haze 83 28.3 58 14.4 43 43 E 23 37 30.03 1017 6 10 0.00 0.00
11:13 pm 23:13 Partly Cloudy 82 27.8 58 14.4 44 44 ENE 22 35 30.00 1016 7 11 0.00 0.00
11:53 pm 23:53 Clear 81 27.2 59 15 47 47 ENE 24 39 30.06 1018 10 16 0.00 0.00

Powered by AerisWeather